Orbital Elements at Epoch 2459000.5 (2020-May-31.0) TDB
Reference: JPL 13 (heliocentric ecliptic J2000)
Element | Value | Uncertainty (1-sigma) | Units |
e | .1499814783980368 | 4.2195e-08 | |
a | 2.32715031241707 | 1.2252e-08 | au |
q | 1.978120868106305 | 1.0015e-07 | au |
i | 3.292646762370226 | 4.7483e-06 | deg |
node | 357.2003522934555 | 8.3376e-05 | deg |
peri | 31.37190539952697 | 8.5078e-05 | deg |
M | 271.4677375574963 | 1.7299e-05 | deg |
tp | 2459319.385037654110 (2021-Apr-14.88503765) | 6.3304e-05 | TDB |
period | 1296.686771447126 3.55 | 1.024e-05 2.804e-08 | d yr |
n | .2776306567840077 | 2.1925e-09 | deg/d |
Q | 2.676179756727836 | 1.4089e-08 | au |
|
| | Orbit Determination Parameters
Additional Information
|